This is the latest recevied weather packets stored in our database for station/object N8JE-13. If no packets are shown the sender has not sent any weather packets the latest 10 day(s).
| Time | Temp. | Humidity | Pressure | Rain* | Wind** | Luminosity | Snow |
|---|---|---|---|---|---|---|---|
| 1778085352 | 13.33° C | 59% | 1012.7 hPa | 0 mm | - | - | - |
| 1778085050 | 13.33° C | 60% | 1012.8 hPa | 0 mm | - | - | - |
| 1778084751 | 13.33° C | 62% | 1012.8 hPa | 0 mm | - | - | - |
| 1778084450 | 12.78° C | 66% | 1012.6 hPa | 0 mm | - | - | - |
| 1778084150 | 12.22° C | 62% | 1012.5 hPa | 0 mm | - | - | - |
| 1778083852 | 12.78° C | 61% | 1012.5 hPa | 0 mm | - | - | - |
| 1778083551 | 12.78° C | 61% | 1012.5 hPa | 0 mm | - | - | - |
| 1778083251 | 12.22° C | 64% | 1012.6 hPa | 0 mm | - | - | - |
| 1778082951 | 12.22° C | 65% | 1012.7 hPa | 0 mm | - | - | - |
| 1778082651 | 11.67° C | 65% | 1012.7 hPa | 0 mm | - | - | - |
| 1778082352 | 12.22° C | 64% | 1012.6 hPa | 0 mm | - | - | - |
| 1778082052 | 11.67° C | 63% | 1012.4 hPa | 0 mm | - | - | - |
| 1778081752 | 11.67° C | 65% | 1012.2 hPa | 0 mm | - | - | - |
| 1778081452 | 11.67° C | 66% | 1011.9 hPa | 0 mm | - | - | - |
| 1778081151 | 11.67° C | 68% | 1011.9 hPa | 0 mm | - | - | - |
| 1778080851 | 11.67° C | 66% | 1012 hPa | 0 mm | - | - | - |
| 1778080551 | 11.67° C | 68% | 1012 hPa | 0 mm | - | - | - |
| 1778080252 | 11.11° C | 70% | 1011.7 hPa | 0 mm | - | - | - |
| 1778079952 | 11.11° C | 72% | 1011.6 hPa | 0 mm | - | - | - |
| 1778079652 | 10.56° C | 70% | 1011.8 hPa | 0 mm | - | - | - |
| 1778079353 | 10.56° C | 72% | 1011.7 hPa | 0 mm | - | - | - |
| 1778079052 | 10.56° C | 73% | 1011.6 hPa | 0 mm | - | - | - |
| 1778078752 | 10° C | 72% | 1011.5 hPa | 0 mm | - | - | - |
| 1778078452 | 10° C | 73% | 1011.5 hPa | 0 mm | - | - | - |
| 1778078152 | 10° C | 75% | 1011.6 hPa | 0 mm | - | - | - |
* Rain latest hour (hover to see other rain measurements)
** Current wind speed in m/s (hover to see current wind gust speed)